Wind_Speed
76 78 76 70 66 61 61 62 60 62 59 49 46 42 41 38 38 35 34 33 32 34 36 38 37 39 41 41 40 40 43 43 42 39 39 40 41 45 48 48 43 40 42 45
73 79 70 67 66 63 63 64 62 60 59 48 48 47 40 42 43 40 35 35 35 35 38 40 39 38 39 41 40 38 39 40 41 41 40 39 39 39 39 37 37 41 43 44
62 63 67 72 72 70 65 63 65 59 56 45 47 48 44 44 41 41 39 37 37 37 38 40 40 41 39 37 37 38 38 37 37 37 36 37 38 38 39 40 41 44 46 48
50 54 67 72 71 70 66 61 62 57 60 49 47 44 44 42 41 42 40 37 37 38 40 41 40 40 41 41 38 37 37 37 37 39 38 39 40 41 43 45 47 48 52 49
46 55 60 69 71 70 66 63 58 56 50 46 47 43 45 43 41 40 39 39 39 35 37 39 40 41 42 40 37 34 36 38 40 42 43 44 46 48 49 51 50 48 51 51
35 40 55 59 52 63 61 60 59 53 47 49 46 42 43 43 38 36 38 35 37 35 35 39 39 40 40 39 36 35 36 36 38 41 43 46 47 45 46 49 51 52 51 46
34 38 45 54 51 51 52 58 57 43 43 51 47 47 29 46 43 41 38 37 35 35 35 37 39 37 37 38 36 33 32 33 36 38 39 42 45 41 42 46 46 44 42 40
15 36 43 53 52 53 55 66 62 65 62 53 45 51 52 53 46 42 37 36 35 36 35 36 39 38 38 37 37 33 31 29 29 32 35 40 40 38 36 36 36 39 38 36
15 21 34 39 49 47 53 48 44 32 45 33 52 52 52 53 46 42 39 39 37 37 38 38 37 37 37 34 30 28 28 28 29 31 32 34 34 34 36 35 31 31 31 32
10 23 28 35 37 41 40 47 40 38 40 40 45 53 54 51 48 42 39 39 37 36 35 35 36 36 32 30 29 30 28 28 28 29 30 31 34 30 26 27 28 30 33 33
5 17 22 38 39 49 49 43 39 36 37 36 35 40 46 43 41 39 36 34 34 33 35 36 36 33 31 30 30 28 29 29 28 29 30 32 29 26 26 30 32 33 32 32
8 20 16 33 34 35 43 46 43 42 44 36 29 36 49 45 42 38 34 35 36 37 36 34 33 32 29 29 29 30 30 29 29 29 31 28 25 25 28 29 31 32 30 32
16 18 28 34 28 36 39 40 40 37 33 40 34 41 43 38 40 38 36 36 37 36 34 33 32 32 31 31 31 31 31 30 30 30 26 24 24 28 30 31 30 30 31 33
21 19 26 30 21 31 44 45 40 36 33 35 27 35 40 41 41 39 39 38 36 35 34 33 33 33 31 30 30 31 33 30 32 31 26 28 30 30 30 30 31 31 33 35
17 12 25 26 26 28 35 43 43 36 26 27 36 33 33 37 38 39 38 38 37 34 32 32 33 31 29 30 32 32 30 30 29 27 25 27 29 28 30 31 32 34 35 33
11 16 32 18 30 32 33 37 43 34 28 30 29 30 28 37 38 40 38 35 31 30 33 32 30 28 28 28 28 30 31 29 26 26 24 25 27 29 27 31 34 34 30 30
18 19 19 20 17 29 34 40 40 31 34 24 25 31 33 36 39 40 38 34 32 32 33 30 28 27 24 25 30 29 29 26 27 22 21 21 25 27 29 31 32 30 27 31
18 20 16 18 23 25 22 35 48 42 39 32 30 32 34 38 38 38 37 36 37 36 32 29 30 28 26 25 24 21 21 23 22 21 22 25 26 27 27 29 29 29 30 33
15 19 21 24 25 25 25 28 46 41 37 32 32 33 32 36 41 38 34 33 32 31 27 28 30 29 28 25 23 21 20 20 22 22 25 26 27 27 29 31 32 32 33 35
18 20 24 18 21 23 30 26 44 40 40 41 34 36 34 32 34 31 30 26 28 28 27 29 24 26 23 24 23 23 22 21 22 24 25 25 27 30 32 33 35 36 37 37
18 20 13 18 19 21 24 22 31 41 36 33 26 23 23 25 22 27 25 27 23 20 28 27 28 24 17 22 20 18 23 21 20 20 23 26 28 30 32 33 35 36 35 34
14 17 13 18 18 23 24 25 29 31 29 25 24 26 24 25 29 30 29 28 23 21 22 25 26 24 18 20 24 21 18 16 16 19 20 24 26 29 32 35 37 36 34 32
16 16 16 15 17 18 23 25 30 30 30 24 23 26 22 25 23 22 18 20 21 21 23 26 23 23 18 19 23 25 18 15 15 18 21 23 26 28 32 35 37 37 34 30
14 14 13 15 19 13 18 23 23 27 27 26 23 19 22 22 18 15 14 13 20 21 20 22 22 21 18 18 19 18 17 17 19 22 22 24 27 28 32 34 35 36 35 28
15 16 16 16 15 17 19 23 25 21 23 24 21 21 20 21 22 18 16 18 16 15 14 15 17 18 18 19 18 18 19 20 22 23 25 26 28 29 33 34 35 34 31 23
16 16 16 16 18 17 16 18 19 19 21 23 25 23 22 18 24 21 14 15 15 15 16 17 18 18 17 18 19 20 21 22 24 27 26 27 31 33 33 36 33 33 24 20
Wind_Direction
232 229 230 234 233 233 235 236 234 238 238 232 235 233 230 234 237 235 229 232 234 238 242 242 238 240 242 243 244 247 249 251 256 257 255 256 255 262 267 271 271 267 267 271
225 231 229 228 229 230 231 233 234 238 234 232 232 233 229 234 238 235 229 229 231 236 238 244 245 240 240 243 246 247 247 249 252 254 260 264 265 265 266 268 268 271 274 277
227 226 222 222 224 223 224 228 232 233 235 232 231 234 228 229 231 233 229 231 228 232 236 237 242 246 243 242 247 252 254 254 255 258 263 266 269 271 273 277 277 278 280 282
221 210 215 219 221 223 222 226 230 229 232 231 227 230 227 227 229 232 232 233 232 230 233 236 241 245 248 249 247 249 255 260 263 265 266 269 272 273 276 278 281 282 286 283
223 214 212 213 216 219 220 222 225 231 226 222 221 220 231 221 222 226 230 229 229 232 234 234 237 244 247 250 251 254 256 259 262 267 270 273 275 279 281 281 283 283 285 287
215 213 217 212 214 218 215 216 218 221 225 221 221 220 227 223 222 221 227 232 231 230 235 238 236 239 244 248 249 250 254 260 264 267 270 271 272 275 276 277 279 282 285 286
208 202 206 210 211 211 210 213 211 207 214 222 216 214 215 224 222 223 226 227 226 227 229 235 237 236 237 240 245 249 253 257 259 261 263 267 271 275 276 277 280 281 280 279
205 211 201 205 206 209 204 211 214 217 217 215 209 214 217 229 224 225 227 227 223 224 226 231 234 235 236 239 243 249 253 255 257 256 257 262 268 273 275 273 275 276 273 277
214 210 208 206 205 202 201 203 198 207 216 202 211 211 215 224 223 223 223 223 221 220 221 225 229 233 236 241 246 247 249 249 251 255 259 264 269 272 277 282 278 273 271 274
185 198 202 206 193 199 202 200 180 192 197 197 212 217 218 219 219 218 218 218 217 216 217 220 225 230 235 240 242 245 252 254 255 258 261 262 265 274 276 272 270 272 273 274
158 197 204 191 195 191 182 182 186 187 193 193 206 208 212 214 217 215 213 212 213 213 215 218 224 229 231 234 241 248 250 252 255 257 261 264 265 268 270 276 277 276 278 285
222 180 227 188 185 192 196 190 187 183 187 192 203 204 210 209 207 207 203 204 207 210 214 218 222 225 231 237 242 245 248 253 256 256 260 254 254 263 272 274 276 282 284 288
170 172 166 166 183 183 181 181 182 186 188 194 198 207 210 201 200 200 199 201 207 211 215 217 222 226 230 236 240 245 248 252 256 257 251 249 260 267 272 275 283 286 292 293
161 171 176 166 171 182 184 174 179 183 192 198 198 208 203 197 195 195 194 199 207 211 216 219 222 226 228 233 237 243 249 255 252 250 253 255 258 265 271 283 288 288 294 295
146 173 176 170 182 180 181 178 179 184 178 193 205 207 204 197 193 192 197 203 206 208 211 220 222 224 224 228 236 245 253 255 249 241 247 255 264 271 280 289 289 289 290 292
152 147 166 167 182 176 179 175 173 174 173 180 202 188 191 199 193 193 199 203 203 208 213 216 217 219 226 231 235 241 249 245 241 243 250 260 269 275 277 282 283 285 287 292
124 126 165 180 162 170 173 181 167 178 177 179 194 194 181 188 194 199 203 209 211 212 214 212 220 224 230 240 242 252 237 239 243 242 251 272 272 276 282 284 284 284 291 297
139 150 162 171 184 181 174 174 172 163 168 163 160 171 183 188 191 192 198 206 208 216 206 217 222 219 236 238 241 240 236 239 238 245 267 274 280 285 286 286 289 293 295 299
143 142 138 141 149 171 174 174 180 162 171 175 173 172 179 185 194 194 203 193 193 203 205 217 220 225 237 239 242 233 230 234 242 258 269 278 283 286 290 293 294 295 298 298
125 121 141 149 155 157 166 173 181 160 159 159 164 166 173 173 181 176 181 193 206 209 206 205 212 228 235 231 232 226 240 254 263 270 277 285 293 295 297 300 301 299 297 298
122 129 146 145 161 162 161 155 169 179 168 166 173 182 192 198 195 197 196 198 193 207 209 214 222 238 240 224 236 246 264 264 270 280 293 300 302 301 302 303 302 301 300 297
133 145 142 143 149 158 161 156 157 167 178 180 184 189 190 178 189 197 205 211 217 222 222 223 229 234 234 234 234 251 272 265 275 293 305 304 302 304 304 304 303 301 296 293
139 133 141 148 145 147 170 169 162 166 168 170 175 182 184 182 188 196 202 211 224 227 237 233 232 231 234 233 238 256 256 263 284 300 304 305 304 303 304 304 304 300 301 294
179 159 156 160 136 145 174 176 171 178 182 183 193 187 183 186 199 194 201 212 217 228 228 228 231 233 240 233 238 241 248 265 282 293 300 302 302 303 307 307 303 302 302 293
158 154 162 162 158 140 152 161 177 179 184 190 190 201 198 200 205 215 225 216 217 221 222 224 230 232 235 236 238 241 258 271 284 294 296 301 303 303 305 305 302 302 298 282
148 145 127 128 146 149 125 149 159 174 176 189 197 190 192 204 187 204 200 212 220 228 231 234 236 235 237 241 246 255 267 279 288 290 297 303 304 301 302 303 300 305 289 272
Height
5618 5624 5643 5667 5678 5690 5698 5700 5711 5715 5722 5738 5743 5751 5759 5764 5770 5777 5783 5786 5790 5793 5795 5799 5805 5810 5814 5818 5823 5827 5829 5832 5836 5840 5841 5842 5844 5845 5845 5844 5844 5844 5843 5842
5590 5607 5644 5654 5660 5670 5679 5688 5696 5702 5712 5724 5731 5739 5749 5755 5762 5768 5775 5780 5783 5786 5789 5792 5797 5803 5806 5810 5815 5818 5822 5825 5828 5831 5833 5834 5835 5835 5836 5837 5838 5837 5835 5834
5578 5608 5618 5624 5635 5651 5664 5674 5681 5695 5700 5713 5720 5728 5739 5746 5753 5759 5766 5771 5776 5781 5783 5786 5788 5792 5798 5804 5807 5811 5814 5818 5821 5823 5824 5825 5826 5827 5827 5827 5827 5827 5826 5824
5566 5583 5592 5606 5622 5638 5653 5664 5670 5681 5688 5701 5709 5720 5728 5737 5745 5750 5757 5763 5768 5773 5778 5780 5783 5786 5790 5794 5798 5802 5806 5809 5812 5815 5817 5817 5817 5818 5819 5818 5817 5816 5814 5812
5561 5572 5577 5588 5609 5622 5641 5649 5661 5669 5680 5688 5700 5711 5717 5727 5736 5742 5747 5753 5760 5766 5771 5775 5777 5778 5782 5787 5792 5796 5798 5801 5805 5806 5807 5809 5809 5809 5810 5808 5807 5804 5803 5801
5547 5561 5570 5586 5599 5609 5625 5635 5648 5659 5668 5680 5694 5705 5708 5719 5729 5735 5739 5746 5752 5758 5763 5767 5771 5774 5776 5780 5784 5788 5791 5794 5797 5798 5799 5800 5800 5800 5800 5799 5798 5795 5793 5792
5539 5547 5560 5573 5584 5595 5608 5621 5635 5650 5660 5679 5686 5693 5701 5709 5717 5723 5732 5738 5744 5750 5755 5760 5764 5768 5772 5774 5777 5781 5784 5787 5789 5790 5791 5791 5790 5790 5790 5789 5788 5786 5784 5782
5537 5543 5550 5560 5573 5587 5599 5612 5626 5638 5655 5667 5675 5682 5689 5698 5708 5715 5724 5731 5737 5743 5748 5753 5757 5760 5763 5767 5771 5774 5777 5779 5781 5782 5783 5783 5783 5782 5781 5780 5780 5779 5776 5773
5538 5543 5549 5556 5568 5582 5594 5604 5628 5643 5653 5662 5664 5669 5681 5689 5699 5707 5715 5723 5729 5735 5739 5745 5750 5753 5756 5760 5763 5766 5768 5771 5772 5774 5775 5775 5774 5774 5774 5774 5772 5770 5768 5765
5538 5541 5546 5556 5568 5580 5590 5611 5621 5631 5642 5654 5656 5666 5673 5682 5691 5699 5707 5715 5722 5729 5735 5739 5743 5746 5750 5753 5755 5758 5760 5762 5764 5766 5767 5768 5767 5768 5767 5766 5765 5763 5760 5757
5536 5541 5546 5552 5559 5570 5584 5599 5612 5630 5641 5649 5652 5662 5667 5679 5688 5696 5704 5711 5717 5723 5728 5732 5736 5740 5743 5746 5748 5752 5754 5756 5758 5759 5761 5761 5762 5762 5761 5760 5758 5756 5752 5750
5538 5540 5543 5550 5563 5574 5585 5597 5608 5619 5628 5643 5650 5655 5660 5672 5681 5690 5698 5705 5711 5716 5721 5726 5730 5734 5738 5741 5744 5746 5748 5751 5752 5754 5756 5755 5756 5756 5755 5753 5751 5749 5746 5743
5537 5541 5544 5555 5563 5572 5583 5592 5608 5619 5628 5635 5643 5649 5658 5669 5677 5685 5693 5700 5706 5711 5717 5722 5726 5729 5733 5736 5738 5741 5743 5745 5747 5748 5749 5750 5750 5749 5748 5747 5744 5741 5739 5736
5540 5544 5549 5552 5563 5570 5577 5590 5605 5615 5623 5632 5642 5645 5653 5663 5673 5681 5688 5695 5701 5707 5712 5717 5721 5724 5728 5731 5733 5735 5737 5739 5741 5742 5743 5743 5743 5743 5742 5740 5737 5734 5731 5728
5544 5547 5551 5558 5565 5572 5580 5589 5602 5612 5625 5632 5633 5642 5654 5663 5670 5678 5686 5692 5697 5703 5707 5711 5715 5718 5721 5724 5727 5729 5731 5732 5733 5735 5736 5738 5737 5736 5734 5731 5729 5726 5723 5720
5546 5550 5556 5562 5566 5574 5583 5591 5602 5613 5616 5625 5630 5638 5650 5659 5666 5675 5681 5687 5693 5698 5702 5706 5709 5713 5716 5719 5722 5724 5725 5727 5729 5731 5731 5732 5731 5729 5727 5725 5723 5720 5717 5713
5550 5555 5559 5563 5568 5574 5584 5591 5601 5609 5617 5624 5629 5638 5644 5653 5662 5670 5677 5683 5688 5693 5697 5700 5704 5708 5712 5714 5717 5718 5719 5722 5724 5725 5726 5725 5724 5722 5720 5718 5715 5712 5708 5705
5555 5559 5563 5566 5572 5580 5585 5592 5600 5609 5615 5622 5629 5636 5644 5652 5659 5665 5671 5677 5682 5686 5691 5696 5700 5704 5707 5709 5711 5713 5716 5717 5719 5720 5719 5718 5717 5716 5713 5711 5708 5704 5701 5697
5559 5563 5565 5569 5577 5581 5587 5594 5599 5609 5617 5621 5627 5635 5642 5647 5654 5662 5668 5673 5679 5683 5688 5692 5696 5700 5702 5705 5707 5709 5711 5712 5714 5714 5713 5712 5710 5708 5705 5703 5700 5697 5693 5690
5563 5566 5574 5576 5581 5584 5588 5594 5600 5610 5617 5623 5628 5635 5644 5649 5655 5659 5665 5671 5676 5680 5684 5689 5693 5695 5697 5700 5702 5704 5705 5707 5708 5707 5706 5704 5702 5700 5697 5694 5690 5688 5685 5682
5569 5572 5577 5580 5584 5588 5592 5598 5604 5613 5623 5625 5631 5637 5643 5647 5653 5658 5663 5667 5673 5678 5682 5685 5688 5691 5692 5694 5697 5700 5701 5701 5702 5702 5699 5697 5694 5692 5689 5686 5683 5680 5677 5674
5574 5576 5579 5583 5587 5592 5596 5602 5607 5616 5622 5627 5632 5637 5643 5647 5650 5655 5660 5667 5671 5674 5677 5679 5683 5686 5687 5689 5692 5694 5695 5696 5696 5694 5692 5690 5688 5686 5683 5680 5676 5672 5669 5665
5577 5581 5584 5588 5591 5595 5600 5604 5609 5615 5622 5628 5633 5637 5641 5647 5651 5656 5660 5663 5666 5669 5672 5675 5678 5680 5682 5684 5687 5689 5690 5690 5689 5688 5687 5684 5682 5679 5676 5672 5668 5664 5661 5657
5579 5582 5586 5590 5594 5597 5601 5606 5611 5616 5621 5627 5631 5637 5642 5647 5651 5654 5658 5660 5663 5666 5668 5671 5673 5675 5678 5680 5682 5683 5684 5684 5683 5682 5680 5677 5675 5672 5669 5664 5660 5656 5652 5648
5581 5584 5587 5590 5594 5598 5602 5606 5612 5617 5622 5627 5631 5636 5640 5644 5648 5651 5655 5657 5660 5663 5665 5667 5669 5671 5673 5674 5676 5678 5678 5677 5676 5675 5673 5670 5668 5664 5660 5655 5651 5647 5643 5641
5583 5587 5590 5593 5597 5601 5604 5608 5614 5617 5622 5626 5630 5634 5638 5641 5644 5649 5652 5655 5658 5660 5662 5664 5665 5667 5668 5669 5671 5671 5671 5670 5669 5667 5665 5662 5659 5656 5651 5647 5642 5639 5635 5634